Location: downtown San Diego
(32.7310°N, 117.1990°W)
Time: 11:39:34
(UTC-07:00)

Daily predictions for brighter satellites

Satellite Brightness Start Highest point End
(mag) Time Altitude Azimuth Time Altitude Azimuth Time Altitude Azimuth
CORIOLIS 4.2 18:27:25 10° SSE 18:32:46 81° ENE 18:38:11 10° N
Meteor 1-16 Rocket 4.1 18:27:29 10° S 18:32:47 89° E 18:38:07 10° N
SL-8 Rocket 4.1 18:29:22 10° S 18:35:32 90° WNW 18:41:46 10° N
Cosmos 1624 Rocket 4.1 18:31:12 10° N 18:36:18 54° ENE 18:41:25 10° SSE
Atlas Centaur 2 2.1 18:33:11 10° WSW 18:37:40 68° S 18:43:25 10° E
ISS -3.9 18:35:18 10° NW 18:38:35 79° NE 18:41:52 10° SE
MTI 4.1 18:35:48 10° N 18:39:00 71° WNW 18:42:10 10° SSW
Cosmos 1371 Rocket 4.0 18:33:37 10° NNW 18:39:00 72° ENE 18:44:19 10° SSE
COSMO-SKYMED 1 2.6 18:36:58 10° NNE 18:41:17 62° E 18:45:34 10° S
Thor Agena Rocket 4.5 18:39:46 10° NE 18:43:54 25° E 18:48:00 10° SSE
Cosmos 1703 4.1 18:40:56 10° NNE 18:44:22 29° E 18:47:47 10° SE
ASTRO E2 2.9 18:41:17 10° WSW 18:45:16 66° S 18:49:06 11° E
ERS-2 2.4 18:42:00 10° S 18:45:41 74° WSW 18:49:23 10° NNW
NOSS 3 (A) 4.3 18:43:29 10° SSW 18:46:14 88° WNW 18:49:06 10° NNE
Milstar 3 Cent rocket 4.2 18:36:28 10° W 18:48:07 44° SSW 18:54:12 10° SE
Cosmos 1408 Rocket 3.9 18:43:42 10° N 18:48:09 74° W 18:52:34 10° S
APEX 4.3 18:48:08 10° SSE 18:50:52 20° ESE 18:52:59 12° ENE
CZ-4 R/B 2.2 18:46:45 10° S 18:50:54 59° W 18:55:03 10° NNW
MOS 1 4.2 18:51:39 10° SSE 18:57:16 73° ENE 19:02:55 10° N
Cosmos 1400 Rocket 2.9 18:53:33 10° N 18:57:31 54° E 19:01:22 10° SSE
Cosmos 2218 Rocket 4.3 18:51:36 10° SSW 18:57:43 72° W 19:03:51 10° N
Cosmos 1908 3.7 18:55:15 10° SSE 18:58:54 38° E 19:02:32 10° NNE
SL-8 R/B 4.5 18:54:20 10° WSW 18:58:59 49° NW 19:03:41 10° NE
YAOGAN 1 3.0 18:56:55 10° S 19:01:12 68° WSW 19:05:31 10° NNW
Cosmos 158 Rocket 4.3 18:57:50 10° S 19:02:27 40° E 19:07:11 10° NNE
Cosmos 1726 3.5 19:00:49 10° SE 19:03:22 18° E 19:04:03 17° ENE
SL-16 R/B 2.6 19:01:42 10° NNW 19:07:21 70° WSW 19:12:58 10° S
BREEZE-M DEB (TANK) 2.2 19:05:40 10° NNW 19:07:25 25° NE 19:07:47 24° ENE
H-2A R/B 4.1 19:06:24 18° E 19:07:27 20° ENE 19:10:19 10° NNE
GENESIS II 4.3 19:03:31 10° SSW 19:07:28 79° WNW 19:11:28 10° NNE
Tiangong 1 0.8 19:06:43 10° WNW 19:09:25 69° SSW 19:11:04 20° SE
Cosmos 1727 Rocket 4.0 19:07:25 10° N 19:13:48 82° E 19:20:08 10° S
SPOT 3 Rocket 3.5 19:08:57 10° SSE 19:14:08 87° ENE 19:19:22 10° NNW
BREEZE-M R/B 3.7 19:12:29 10° S 19:13:56 17° SE 19:13:56 17° SE
Cosmos 1339 Rocket 4.5 19:08:27 10° N 19:14:49 86° E 19:21:02 10° S
GP-B 3.8 19:11:17 10° N 19:15:39 57° W 19:19:59 10° SSW
ATLAS 3B CENTAUR R/B 4.2 19:11:42 10° WSW 19:15:40 25° S 19:23:28 10° SE
GRACE-2 3.6 19:13:47 10° S 19:16:21 87° W 19:18:56 10° N
Cosmos 1269 Rocket 4.4 19:13:33 10° S 19:18:27 41° E 19:23:21 10° NNE
GRACE-1 3.8 19:16:06 10° S 19:18:39 74° W 19:21:14 10° N
Cosmos 2056 Rocket 4.3 19:18:47 10° NNW 19:23:55 53° WSW 19:28:57 10° S
ALOS 2.1 19:19:25 10° SSE 19:24:03 76° ENE 19:28:43 10° N
CZ-4C R/B 2.1 19:22:45 10° S 19:27:36 51° ESE 19:31:34 17° NE
Abrixas 3.8 19:25:53 10° SSW 19:26:51 19° S 19:26:51 19° S
Cosmos 468 4.4 19:23:39 10° SSW 19:28:51 89° WNW 19:34:06 10° NNE
Cosmos 2098 Rocket 3.2 19:25:13 10° SSE 19:28:58 49° E 19:33:44 10° NNE
Cosmos 2151 3.3 19:25:19 10° NNW 19:29:34 68° W 19:33:46 10° S
OAO 1 Rocket 4.4 19:29:55 10° WSW 19:35:14 86° NNW 19:37:36 34° ENE
NOAA 12 4.2 19:30:04 10° S 19:35:20 78° WSW 19:40:40 10° NNW
Cosmos 1626 4.0 19:34:07 10° NNW 19:37:30 33° W 19:40:52 10° SSW
Delta 2 Rocket 3.2 19:35:52 10° W 19:39:25 53° N 19:39:54 48° NNE
Cosmos 1315 Rocket 2.8 19:35:44 10° N 19:39:48 89° W 19:43:55 10° S
Cosmos 1452 Rocket 3.4 19:36:34 10° NNW 19:41:50 82° ENE 19:47:05 10° SSE
FALCON 9 R/B 3.1 19:41:32 10° WSW 19:43:46 21° SSW 19:45:53 15° SSE
SL-24 R/B - RUBIN 2 3.6 19:39:12 10° NNW 19:43:52 60° ENE 19:44:45 48° ESE
Cosmos 2221 2.9 19:40:48 10° SSW 19:45:03 64° W 19:49:21 10° N
USA 267 3.2 19:40:29 15° NE 19:46:06 89° SE 19:52:39 10° SW
COSMOS 2428 3.1 19:41:38 10° N 19:46:57 40° ENE 19:47:22 39° ENE
CZ-3 Stage 3 2.7 19:48:05 10° WSW 19:48:39 17° WSW 19:48:39 17° WSW
Cosmos 2360 Rocket 2.3 19:44:27 10° NNW 19:50:07 79° WSW 19:55:46 10° SSE
Cosmos 2333 Rocket 3.8 19:45:56 10° N 19:48:28 19° NE 19:48:28 19° NE
Cosmos 2219 3.1 19:46:40 10° SSW 19:52:25 84° ESE 19:58:11 10° NNE
FengYun 1-2 T 4.1 19:49:44 10° SSE 19:55:14 81° ENE 20:00:44 10° N
Cosmos 2322 Rocket 4.5 19:52:16 10° NW 19:56:39 24° WSW 20:01:01 10° SSW
DELTA 2 R/B (1) 3.9 19:51:45 10° WNW 19:57:11 50° NNE 19:58:14 44° NE
RESURS DK-1 2.5 19:53:41 10° NNW 19:57:47 69° WSW 19:59:02 42° S
SJ-6B 4.3 20:01:41 25° N 20:01:41 25° N 20:03:19 10° N
Cosmos 921 Rocket 3.3 19:55:26 10° NNW 19:59:50 67° WSW 20:02:30 23° S
Cosmos 44 3.7 19:57:41 10° SW 20:01:59 53° WNW 20:03:58 28° N
MOS 1-B Rocket 4.1 20:12:52 50° NE 20:12:52 50° NE 20:17:36 10° N
Cosmos 44 Rocket 4.4 20:13:00 10° SW 20:17:26 40° WNW 20:19:34 25° N
Cosmos 2322 4.3 20:12:43 10° NNW 20:18:17 55° WSW 20:22:17 19° S
ASTRO E2 4.4 20:21:46 10° W 20:24:01 32° W 20:24:01 32° W
Atlas Centaur 2 2.5 20:21:26 10° W 20:26:33 58° SSW 20:26:33 58° SSW
Cosmos 2219 Rocket 3.5 20:34:30 10° NNW 20:37:18 30° N 20:37:18 30° N
CZ-4C R/B 4.3 21:12:40 10° W 21:16:27 20° NW 21:16:52 19° NW
